Temp
-13 -14 -15 -15 -14 -14 -14 -14 -13 -13 -13 -13 -13 -14 -14 -14 -14 -14 -15 -15 -14 -15 -15 -15 -15 -16 -15
-14 -15 -15 -15 -14 -14 -14 -14 -14 -14 -14 -14 -14 -14 -14 -14 -15 -15 -15 -15 -15 -15 -15 -15 -15 -15 -15
-14 -15 -15 -15 -15 -14 -14 -14 -14 -14 -14 -14 -14 -14 -15 -15 -15 -15 -15 -15 -15 -15 -15 -15 -15 -15 -15
-14 -14 -15 -16 -16 -15 -15 -14 -14 -14 -14 -15 -15 -15 -15 -15 -15 -15 -16 -16 -15 -15 -15 -15 -15 -14 -15
-14 -14 -15 -16 -16 -15 -15 -15 -15 -15 -15 -15 -15 -16 -16 -16 -16 -16 -16 -16 -15 -16 -15 -15 -15 -15 -15
-14 -14 -15 -15 -16 -15 -15 -16 -15 -16 -16 -16 -16 -16 -16 -17 -16 -16 -16 -16 -16 -16 -15 -15 -15 -15 -15
-14 -14 -14 -15 -15 -16 -16 -16 -16 -16 -16 -16 -16 -16 -16 -17 -17 -17 -17 -16 -16 -15 -16 -16 -16 -15 -16
-12 -14 -14 -15 -15 -15 -16 -16 -15 -15 -15 -14 -16 -16 -17 -18 -18 -17 -17 -16 -16 -16 -16 -16 -16 -16 -17
-14 -14 -15 -15 -15 -15 -15 -15 -15 -14 -14 -14 -15 -15 -17 -17 -17 -17 -16 -16 -16 -16 -16 -17 -16 -17 -17
-14 -15 -15 -14 -15 -15 -15 -14 -15 -14 -15 -14 -15 -15 -15 -16 -17 -16 -16 -16 -17 -16 -16 -17 -17 -17 -17
-14 -14 -14 -14 -14 -15 -15 -15 -15 -14 -14 -15 -15 -15 -15 -15 -15 -15 -15 -16 -16 -17 -17 -18 -18 -18 -18
-15 -15 -14 -14 -15 -15 -15 -15 -15 -15 -15 -15 -15 -15 -15 -15 -15 -15 -15 -16 -16 -16 -17 -18 -18 -18 -18
-14 -15 -15 -15 -15 -15 -15 -15 -15 -15 -15 -15 -15 -15 -15 -15 -14 -14 -15 -16 -17 -16 -17 -18 -18 -18 -17
-15 -15 -15 -15 -15 -16 -16 -15 -15 -15 -15 -15 -15 -16 -16 -15 -15 -15 -16 -16 -16 -16 -16 -18 -18 -18 -18
-15 -15 -15 -15 -15 -15 -15 -15 -16 -16 -16 -16 -16 -16 -16 -16 -16 -16 -16 -17 -17 -17 -17 -18 -19 -19 -20
-16 -16 -16 -16 -16 -16 -16 -16 -16 -17 -16 -16 -17 -16 -16 -17 -17 -16 -17 -17 -17 -18 -18 -18 -19 -20 -21
-16 -16 -16 -16 -16 -17 -17 -16 -17 -17 -17 -17 -17 -17 -17 -18 -19 -17 -17 -18 -18 -18 -18 -19 -19 -21 -21
Height
5800 5801 5803 5804 5804 5804 5802 5800 5799 5797 5794 5792 5789 5784 5780 5777 5773 5767 5763 5757 5751 5746 5741 5734 5727 5719 5710
5789 5790 5792 5794 5794 5793 5792 5790 5789 5787 5784 5781 5778 5775 5770 5765 5760 5754 5750 5744 5738 5734 5727 5723 5714 5706 5697
5778 5779 5782 5783 5783 5783 5781 5780 5777 5776 5773 5771 5767 5763 5758 5753 5747 5742 5737 5731 5726 5718 5713 5707 5699 5691 5683
5768 5769 5770 5772 5773 5772 5772 5769 5767 5766 5763 5759 5756 5752 5746 5740 5734 5729 5725 5718 5712 5706 5700 5692 5683 5675 5667
5757 5759 5760 5760 5760 5761 5760 5759 5757 5756 5753 5750 5746 5741 5734 5728 5723 5717 5711 5705 5697 5692 5686 5677 5670 5662 5654
5744 5747 5748 5747 5749 5749 5749 5747 5747 5744 5742 5740 5733 5729 5724 5718 5711 5707 5700 5692 5684 5679 5672 5665 5657 5649 5640
5733 5735 5735 5735 5737 5737 5735 5734 5733 5731 5730 5730 5723 5718 5712 5706 5700 5693 5686 5680 5674 5667 5661 5652 5642 5634 5624
5722 5723 5724 5725 5725 5725 5724 5722 5721 5720 5717 5716 5712 5708 5702 5696 5690 5682 5676 5669 5662 5654 5647 5638 5628 5619 5609
5711 5712 5713 5713 5713 5712 5712 5710 5709 5707 5703 5702 5699 5697 5693 5687 5677 5670 5663 5656 5649 5642 5633 5624 5614 5606 5596
5699 5701 5701 5702 5701 5699 5698 5698 5697 5696 5692 5689 5686 5683 5682 5679 5667 5660 5653 5645 5638 5629 5619 5609 5600 5594 5584
5689 5690 5690 5691 5690 5690 5688 5687 5684 5682 5680 5677 5675 5671 5668 5664 5658 5647 5641 5632 5626 5618 5608 5596 5585 5576 5570
5678 5679 5680 5680 5681 5679 5677 5676 5673 5671 5670 5665 5661 5658 5653 5651 5646 5638 5631 5621 5615 5609 5600 5586 5573 5562 5549
5669 5669 5669 5670 5669 5667 5665 5664 5663 5660 5657 5654 5651 5645 5641 5639 5635 5627 5624 5615 5603 5597 5587 5574 5561 5551 5541
5658 5658 5658 5658 5657 5656 5655 5654 5652 5649 5646 5644 5641 5635 5630 5625 5622 5618 5608 5601 5594 5585 5577 5563 5544 5534 5522
5647 5647 5647 5646 5646 5645 5644 5641 5640 5638 5635 5633 5630 5624 5620 5615 5610 5605 5598 5589 5579 5573 5566 5556 5534 5521 5508
5635 5636 5635 5634 5634 5633 5632 5630 5628 5626 5624 5622 5618 5614 5608 5601 5600 5595 5584 5578 5569 5560 5551 5544 5533 5514 5500
5623 5624 5623 5624 5623 5621 5620 5618 5616 5614 5612 5612 5607 5604 5600 5594 5583 5579 5576 5567 5560 5549 5539 5527 5520 5508 5495
Wind_Speed
55 53 48 46 45 43 45 47 49 48 50 51 54 55 55 58 56 58 59 56 60 58 59 59 61 65 65
52 54 48 47 47 47 47 50 50 51 52 53 55 56 59 62 61 65 55 56 59 60 59 60 64 67 65
54 55 53 50 49 49 50 53 50 51 52 51 55 61 62 60 61 61 56 55 58 58 60 63 65 69 67
53 51 49 46 49 53 52 52 51 52 54 56 59 59 58 59 59 55 51 56 58 61 63 65 68 67 65
49 50 45 49 50 52 52 54 56 56 59 61 60 60 60 62 56 50 52 59 59 65 67 64 63 65 69
47 45 47 49 54 55 56 61 60 59 64 57 61 59 60 58 51 53 55 64 63 66 59 61 65 68 71
43 46 49 50 55 54 55 58 59 58 59 55 56 56 51 50 53 56 61 64 68 62 61 63 66 69 72
45 48 47 50 52 53 55 52 52 52 53 53 52 51 48 51 57 60 65 64 60 60 65 68 68 70 73
44 46 47 49 50 50 48 50 52 53 54 55 51 50 47 51 59 62 59 57 60 63 66 68 69 71 72
45 46 46 48 48 49 49 52 52 55 53 54 53 51 51 50 57 56 59 61 64 65 66 69 71 71 71
48 49 49 50 51 51 52 52 53 53 53 53 52 52 51 49 50 57 60 61 64 65 68 69 70 71 71
46 45 46 48 51 52 53 52 51 51 50 47 45 48 50 51 52 55 59 61 62 64 66 68 69 71 76
47 48 50 52 52 51 51 49 48 47 46 47 49 51 53 54 56 58 57 58 61 65 67 70 71 75 77
43 41 40 41 42 44 46 46 48 49 50 52 53 53 54 57 57 58 60 62 65 70 70 71 75 76 76
41 39 39 41 42 44 47 49 52 53 52 54 55 54 55 56 58 61 62 65 68 70 71 70 72 73 73
43 44 43 44 46 48 48 49 49 50 51 52 51 54 58 61 62 64 66 67 68 69 69 67 64 69 70
46 46 46 47 46 45 45 46 48 48 50 53 54 56 58 60 62 64 65 68 68 66 64 64 61 63 66
Wind_Direction
264 267 260 265 270 270 272 276 279 281 285 290 291 293 301 303 304 306 307 301 302 304 303 304 308 308 309
263 262 264 261 269 271 273 276 279 281 284 287 291 299 302 302 305 305 306 301 303 307 307 306 307 312 311
260 263 264 264 265 268 275 277 278 279 283 287 294 298 303 302 303 304 306 304 303 305 304 306 308 312 310
265 270 271 265 266 268 271 273 276 280 282 286 294 300 300 300 305 306 308 307 305 306 308 309 311 311 312
266 267 267 262 263 267 269 275 278 282 284 289 293 299 300 303 304 304 305 307 308 312 313 310 311 312 315
264 266 268 264 264 267 271 276 279 281 285 289 295 297 301 301 301 304 303 304 310 312 312 314 312 313 313
265 266 267 268 270 273 276 279 282 283 287 292 294 298 298 301 302 301 302 305 309 309 311 312 313 314 313
261 266 269 269 273 276 281 283 285 287 288 290 294 294 295 299 301 299 301 305 310 311 312 312 312 314 314
264 267 270 271 274 276 276 279 282 286 290 291 293 295 297 301 304 306 307 308 311 312 312 311 312 315 316
264 266 269 269 270 272 278 281 287 289 289 292 291 293 296 300 304 307 309 310 310 312 312 312 314 316 318
262 265 268 272 275 276 280 283 287 290 292 291 290 295 301 303 306 306 309 311 312 312 313 314 315 316 317
266 271 273 275 278 281 283 286 286 290 293 294 297 299 301 301 303 305 309 308 312 314 314 315 316 317 319
270 276 278 281 283 284 284 284 288 291 295 296 296 298 301 301 304 306 308 309 311 314 315 317 317 319 320
271 274 279 286 288 286 286 286 290 294 297 298 300 301 301 305 306 306 308 310 313 314 317 321 320 319 318
275 278 280 283 287 288 288 291 293 293 296 298 301 303 303 303 306 308 309 313 314 315 317 323 318 316 317
270 273 276 279 282 284 288 290 291 293 297 300 301 302 304 306 308 310 313 313 315 317 322 322 318 317 320
273 274 276 279 282 284 287 290 293 295 296 298 300 302 305 306 308 311 313 313 315 318 320 316 318 320 323